This demonstration page uses our WeatherBlox Daily Observations layout. Learn more.

Left ArrowRight Arrow

39.51506, -84.39828

Hourly Observations for December 28, 2018

Temp ( °F °C ) Dew Point ( °F °C ) Humidity (%) Winds ( mph kmh ) Pressure ( in mb ) Visibility ( mi km ) Precip ( " mm )
12:15 am 00:15 Cloudy 54 12.1 50 10.2 88 88 S 9 15 29.85 1011 10 16 0.00 0.00
12:35 am 00:35 Cloudy 54 12.1 51 10.3 89 89 S 9 15 29.85 1011 10 16 0.00 0.00
12:55 am 00:55 Cloudy 54 12.3 51 10.5 89 89 S 7 11 29.85 1011 10 16 0.00 0.00
1:15 am 01:15 Cloudy 55 12.8 52 10.9 88 88 S 9 15 29.85 1011 10 16 0.00 0.00
1:35 am 01:35 Cloudy 55 13 52 10.9 87 87 SSW 10 17 29.85 1011 10 16 0.00 0.00
1:55 am 01:55 Cloudy 56 13.3 52 11.1 87 87 S 10 17 29.85 1011 10 16 0.00 0.00
2:15 am 02:15 Cloudy 56 13.4 52 11.1 86 86 SSW 10 17 29.85 1011 10 16 0.00 0.00
2:35 am 02:35 Cloudy 56 13.5 52 11.1 86 86 SSW 12 19 29.85 1011 10 16 0.00 0.00
2:55 am 02:55 Cloudy with Light Rain 56 13.2 53 11.4 89 89 S 10 17 29.85 1011 10 16 0.00 0.00
3:15 am 03:15 Cloudy with Drizzle 56 13.2 53 11.4 89 89 SSW 13 20 29.85 1011 10 16 0.00 0.00
3:35 am 03:35 Cloudy with Light Rain 55 13 53 11.5 91 91 S 12 19 29.85 1011 7 11 0.00 0.00
3:55 am 03:55 Cloudy with Light Rain 55 12.7 53 11.8 94 94 S 7 11 29.85 1011 3 5 0.01 0.25
4:15 am 04:15 Cloudy with Light Rain 55 12.6 53 11.6 94 94 SSW 7 11 29.85 1011 4 6 0.01 0.25
4:35 am 04:35 Cloudy with Light Rain 54 12.1 52 11.3 95 95 SW 7 11 29.85 1011 10 16 0.01 0.25
4:55 am 04:55 Cloudy with Rain 53 11.9 52 11.2 96 96 SW 7 11 29.85 1011 7 11 0.02 0.51
5:15 am 05:15 Cloudy with Drizzle 54 12.1 53 11.4 96 96 SSW 9 15 29.85 1011 4 6 0.00 0.00
5:35 am 05:35 Cloudy with Drizzle 54 12 53 11.5 97 97 SSW 7 11 29.83 1010 3 5 0.01 0.25
5:55 am 05:55 Cloudy with Drizzle 54 12.1 53 11.6 97 97 S 9 15 29.83 1010 5 8 0.01 0.25
6:15 am 06:15 Cloudy with Drizzle 54 12.2 53 11.7 97 97 SSW 10 17 29.85 1011 3 5 0.00 0.00
6:35 am 06:35 Cloudy with Drizzle 54 12.1 53 11.7 97 97 SSW 7 11 29.85 1011 3 4 0.01 0.25
6:55 am 06:55 Cloudy with Light Rain 53 11.9 53 11.6 98 98 S 8 13 29.83 1010 4 6 0.02 0.51
7:15 am 07:15 Cloudy 54 12 53 11.6 97 97 SSW 8 13 29.83 1010 10 16 0.00 0.00
7:35 am 07:35 Cloudy 53 11.9 53 11.5 97 97 SSW 7 11 29.83 1010 10 16 0.00 0.00
7:55 am 07:55 Cloudy 53 11.6 52 11.2 97 97 SW 7 11 29.83 1010 10 16 0.00 0.00
8:15 am 08:15 Cloudy with Mist and Fog 53 11.9 53 11.5 97 97 SSW 10 17 29.83 1010 5 8 0.00 0.00
8:35 am 08:35 Cloudy 54 12 53 11.6 97 97 SW 8 13 29.85 1011 10 16 0.00 0.00
8:55 am 08:55 Cloudy with Mist and Fog 53 11.8 53 11.5 98 98 N 9 15 29.85 1011 4 6 0.00 0.00
9:15 am 09:15 Cloudy with Light Rain 54 12.1 53 11.8 98 98 SSW 8 13 29.85 1011 2 3 0.00 0.00
9:35 am 09:35 Cloudy 54 12.2 53 11.5 96 96 SW 13 20 29.85 1011 10 16 0.00 0.00
9:55 am 09:55 Cloudy 54 12.2 52 11.2 94 94 WSW 10 17 29.85 1011 10 16 0.00 0.00
10:15 am 10:15 Cloudy 54 12.2 52 11.3 94 94 SW 12 19 29.85 1011 10 16 0.00 0.00
10:35 am 10:35 Cloudy 54 12.1 52 11.3 95 95 SSW 8 13 29.85 1011 10 16 0.00 0.00
10:55 am 10:55 Cloudy 54 12.2 53 11.5 96 96 SSW 8 13 29.85 1011 10 16 0.00 0.00
11:15 am 11:15 Partly Cloudy 55 12.6 53 11.9 96 96 SSW 12 19 29.85 1011 10 16 0.00 0.00
11:35 am 11:35 Sunny 55 12.7 53 11.7 94 94 SSW 12 19 29.85 1011 10 16 0.00 0.00
11:55 am 11:55 Partly Cloudy 57 13.9 54 12.3 90 90 SSW 13 20 29.83 1010 10 16 0.00 0.00
12:15 pm 12:15 Partly Cloudy 56 13.5 53 11.4 87 87 SSW 14 22 29.85 1011 10 16 0.00 0.00
12:35 pm 12:35 Cloudy 56 13.6 52 11.1 85 85 SW 16 26 29.85 1011 10 16 0.00 0.00
12:55 pm 12:55 Cloudy 57 13.9 52 11.1 83 83 SW 13 20 29.80 1009 10 16 0.00 0.00
1:15 pm 13:15 Partly Cloudy 59 15 51 10.4 74 74 SW 14 22 29.80 1009 10 16 0.00 0.00
1:35 pm 13:35 Mostly Cloudy 58 14.3 49 9.2 72 72 SW 17 28 29.80 1009 10 16 0.00 0.00
1:55 pm 13:55 Cloudy 58 14.4 48 8.9 70 70 SW 18 30 29.83 1010 10 16 0.00 0.00
2:15 pm 14:15 Partly Cloudy 58 14.3 48 8.8 70 70 SW 16 26 29.83 1010 10 16 0.00 0.00
2:35 pm 14:35 Partly Cloudy 59 15 48 9.1 68 68 SW 13 20 29.83 1010 10 16 0.00 0.00
2:55 pm 14:55 Mostly Cloudy 58 14.4 48 8.9 70 70 SW 13 20 29.83 1010 10 16 0.00 0.00
3:15 pm 15:15 Cloudy 56 13.2 47 8.5 73 73 W 15 24 29.88 1012 10 16 0.00 0.00
3:35 pm 15:35 Mostly Cloudy 53 11.9 45 7.4 74 74 W 17 28 29.88 1012 10 16 0.00 0.00
3:55 pm 15:55 Sunny 52 11 44 6.7 75 75 W 17 28 29.91 1013 10 16 0.00 0.00
4:15 pm 16:15 Sunny 51 10.4 43 6.3 76 76 W 13 20 29.91 1013 10 16 0.00 0.00
4:35 pm 16:35 Partly Cloudy 50 10.1 43 6 76 76 W 15 24 29.94 1014 10 16 0.00 0.00
4:55 pm 16:55 Partly Cloudy 48 8.9 42 5.3 78 78 W 12 19 29.94 1014 10 16 0.00 0.00
5:15 pm 17:15 Partly Cloudy 47 8.2 41 4.8 79 79 W 9 15 29.94 1014 10 16 0.00 0.00
5:35 pm 17:35 Partly Cloudy 45 7.1 39 3.8 80 80 W 12 19 29.97 1015 10 16 0.00 0.00
5:55 pm 17:55 Clear 43 6 37 2.7 80 80 WNW 10 17 29.97 1015 10 16 0.00 0.00
6:15 pm 18:15 Partly Cloudy 41 5.1 35 1.7 79 79 WNW 13 20 30.00 1016 10 16 0.00 0.00
6:35 pm 18:35 Mostly Cloudy 40 4.6 34 1.2 79 79 WNW 12 19 30.00 1016 10 16 0.00 0.00
6:55 pm 18:55 Mostly Cloudy 40 4.4 33 0.8 78 78 WNW 17 28 30.03 1017 10 16 0.00 0.00
7:15 pm 19:15 Cloudy 39 3.7 32 -0.1 76 76 WNW 13 20 30.06 1018 10 16 0.00 0.00
7:35 pm 19:35 Cloudy 38 3.3 31 -0.5 76 76 WNW 13 20 30.06 1018 10 16 0.00 0.00
7:55 pm 19:55 Mostly Cloudy 37 2.9 30 -1.1 75 75 W 12 19 30.09 1019 10 16 0.00 0.00
8:15 pm 20:15 Clear 36 2.4 30 -1.2 77 77 W 10 17 30.09 1019 10 16 0.00 0.00
8:35 pm 20:35 Cloudy 37 2.6 30 -1 77 77 W 10 17 30.09 1019 10 16 0.00 0.00
8:55 pm 20:55 Cloudy 37 2.9 30 -1 76 76 W 12 19 30.09 1019 10 16 0.00 0.00
9:15 pm 21:15 Cloudy 37 2.8 30 -1.2 75 75 W 13 20 30.09 1019 10 16 0.00 0.00
9:35 pm 21:35 Cloudy 37 2.7 29 -1.4 75 75 W 14 22 30.12 1020 10 16 0.00 0.00
9:55 pm 21:55 Cloudy 37 2.6 30 -1.2 76 76 W 15 24 30.12 1020 10 16 0.00 0.00
10:15 pm 22:15 Cloudy 37 2.6 30 -1 77 77 W 16 26 30.12 1020 10 16 0.00 0.00
10:35 pm 22:35 Cloudy 36 2.3 29 -1.5 76 76 WSW 15 24 30.15 1021 10 16 0.00 0.00
10:55 pm 22:55 Cloudy 36 2 29 -1.4 78 78 W 13 20 30.15 1021 10 16 0.00 0.00
11:15 pm 23:15 Cloudy 35 1.4 29 -1.7 80 80 W 13 20 30.15 1021 10 16 0.00 0.00
11:35 pm 23:35 Cloudy 34 1.2 28 -2.4 77 77 W 14 22 30.18 1022 10 16 0.00 0.00
11:55 pm 23:55 Cloudy 34 1.2 27 -2.7 76 76 W 13 20 30.18 1022 10 16 0.00 0.00

Powered by AerisWeather